,,Stat1,,Stat2,,Stat3,,Stat4,,Wind1,,Wind1,
time,status,PR1M_SUM,status,RH1M_AVG,status,SR1M_AVG,status,TA1M_AVG,status,W1dAve1m,status,W1sAve1m,
1999-11-11, 00:01:00,VALID,0,VALID,97.7317,VALID,-0.0339617,VALID,19.3784,VALID,180,VALID,0,
1999-11-11, 00:02:00,VALID,0,VALID,97.7254,VALID,-0.0339617,VALID,19.3587,VALID,174,VALID,0.088141,
1999-11-11, 00:03:00,VALID,0,VALID,97.6376,VALID,-0.0849042,VALID,19.3331,VALID,167,VALID,0.584736,
1999-11-11, 00:04:00,VALID,0,VALID,97.6173,VALID,-0.0169808,VALID,19.3137,VALID,162,VALID,0.587993,
1999-11-11, 00:05:00,VALID,0,VALID,97.5829,VALID,-0.0679233,VALID,19.2846,VALID,161,VALID,0.437289,
1999-11-11, 00:06:00,VALID,0,VALID,97.602,VALID,0,VALID,19.2811,VALID,161,VALID,0.310697,
1999-11-11, 00:07:00,VALID,0,VALID,97.2383,VALID,-0.0509425,VALID,19.2289,VALID,160,VALID,0.342748,
1999-11-11, 00:08:01,VALID,0,VALID,96.558,VALID,-0.0169808,VALID,19.171,VALID,148,VALID,0.00904605,
1999-11-11, 00:09:00,VALID,0,VALID,96.1498,VALID,-0.0169808,VALID,19.1031,VALID,129,VALID,0,
1999-11-11, 00:10:00,VALID,0,VALID,96.4944,VALID,0,VALID,19.0414,VALID,98,VALID,0,
1999-11-11, 00:11:00,VALID,0,VALID,96.9331,VALID,-0.0339617,VALID,18.98,VALID,98,VALID,0,
1999-11-11, 00:12:00,VALID,0,VALID,97.5562,VALID,-0.0509425,VALID,18.9604,VALID,100,VALID,0,
1999-11-11, 00:13:00,VALID,0,VALID,98.075,VALID,-0.0339617,VALID,18.9805,VALID,100,VALID,0,
1999-11-11, 00:14:00,VALID,0,VALID,98.3828,VALID,-0.0339617,VALID,18.9997,VALID,99,VALID,0,
1999-11-11, 00:15:00,VALID,0,VALID,98.6218,VALID,-0.0849042,VALID,18.9992,VALID,100,VALID,0,
1999-11-11, 00:16:00,VALID,0,VALID,98.8024,VALID,-0.0339617,VALID,19.022,VALID,104,VALID,0,
1999-11-11, 00:17:00,VALID,0,VALID,98.9054,VALID,-0.0169808,VALID,19.0384,VALID,106,VALID,0,
1999-11-11, 00:18:01,VALID,0,VALID,98.997,VALID,-0.0169808,VALID,19.0514,VALID,107,VALID,0,
1999-11-11, 00:19:01,VALID,0,VALID,99.0783,VALID,-0.0169808,VALID,19.077,VALID,109,VALID,0,
1999-11-11, 00:20:00,VALID,0,VALID,99.119,VALID,-0.0339617,VALID,19.1063,VALID,109,VALID,0,
1999-11-11, 00:21:00,VALID,0,VALID,98.9703,VALID,-0.0169808,VALID,19.083,VALID,109,VALID,0,
1999-11-11, 00:22:00,VALID,0,VALID,98.9461,VALID,0,VALID,19.0576,VALID,109,VALID,0,
1999-11-11, 00:23:00,VALID,0,VALID,98.9855,VALID,-0.0169808,VALID,19.0641,VALID,109,VALID,0,
1999-11-11, 00:24:00,VALID,0,VALID,99.0249,VALID,-0.0169808,VALID,19.0777,VALID,109,VALID,0,
1999-11-11, 00:25:00,VALID,0,VALID,98.9168,VALID,-0.0509425,VALID,19.0678,VALID,109,VALID,0,
1999-11-11, 00:26:00,VALID,0,VALID,98.8088,VALID,-0.0339617,VALID,19.0384,VALID,112,VALID,0,
1999-11-11, 00:27:00,VALID,0,VALID,98.6473,VALID,-0.0679233,VALID,18.9842,VALID,131,VALID,0,
1999-11-11, 00:28:00,VALID,0,VALID,98.5621,VALID,-0.0169808,VALID,18.9574,VALID,131,VALID,0,
1999-11-11, 00:29:00,VALID,0,VALID,98.5176,VALID,-0.0509425,VALID,18.974,VALID,131,VALID,0,
1999-11-11, 00:30:01,VALID,0,VALID,98.4769,VALID,-0.0339617,VALID,18.9738,VALID,131,VALID,0,
1999-11-11, 00:31:00,VALID,0,VALID,98.4298,VALID,-0.0169808,VALID,18.974,VALID,131,VALID,0,
1999-11-11, 00:32:00,VALID,0,VALID,98.379,VALID,-0.0169808,VALID,18.9837,VALID,131,VALID,0,
1999-11-11, 00:33:00,VALID,0,VALID,98.3459,VALID,-0.0679233,VALID,19.0001,VALID,138,VALID,0,
1999-11-11, 00:34:00,VALID,0,VALID,98.2569,VALID,0,VALID,18.9874,VALID,183,VALID,0,
1999-11-11, 00:35:00,VALID,0,VALID,98.1335,VALID,-0.0169808,VALID,18.9348,VALID,198,VALID,0,
1999-11-11, 00:36:00,VALID,0,VALID,98.1717,VALID,-0.0169808,VALID,18.9186,VALID,201,VALID,0,
1999-11-11, 00:37:00,VALID,0,VALID,98.1602,VALID,0,VALID,18.9285,VALID,195,VALID,0,
1999-11-11, 00:38:00,VALID,0,VALID,98.2531,VALID,-0.0169808,VALID,18.9061,VALID,186,VALID,0.00591216,
1999-11-11, 00:39:00,VALID,0,VALID,98.7617,VALID,-0.0509425,VALID,18.9676,VALID,184,VALID,0.833059,
1999-11-11, 00:40:00,VALID,0,VALID,98.7159,VALID,-0.0509425,VALID,18.9676,VALID,175,VALID,0.853002,
1999-11-11, 00:41:01,VALID,0,VALID,98.8749,VALID,-0.0509425,VALID,18.9835,VALID,177,VALID,0.808894,
1999-11-11, 00:42:00,VALID,0,VALID,98.9079,VALID,0,VALID,19.0133,VALID,178,VALID,0.944468,
1999-11-11, 00:43:00,VALID,0,VALID,98.9372,VALID,-0.0339617,VALID,19.0228,VALID,184,VALID,1.02754,
1999-11-11, 00:44:00,VALID,0,VALID,98.9741,VALID,-0.0169808,VALID,19.0128,VALID,165,VALID,0.782853,
1999-11-11, 00:45:00,VALID,0,VALID,98.6714,VALID,0,VALID,18.9415,VALID,157,VALID,0.742773,
1999-11-11, 00:46:00,VALID,0,VALID,98.6663,VALID,0,VALID,18.9389,VALID,166,VALID,0.606086,
1999-11-11, 00:47:00,VALID,0,VALID,98.8316,VALID,-0.0339617,VALID,18.9583,VALID,186,VALID,0.724219,
1999-11-11, 00:48:00,VALID,0,VALID,98.9677,VALID,-0.0509425,VALID,18.9805,VALID,196,VALID,0.797297,
1999-11-11, 00:49:00,VALID,0,VALID,99.0631,VALID,-0.0509425,VALID,18.9837,VALID,200,VALID,0.621622,
1999-11-11, 00:50:01,VALID,0,VALID,99.0923,VALID,-0.0169808,VALID,18.987,VALID,212,VALID,0.71855,
1999-11-11, 00:51:00,VALID,0,VALID,99.1661,VALID,-0.0169808,VALID,18.9842,VALID,223,VALID,0.702303,
1999-11-11, 00:52:01,VALID,0,VALID,99.236,VALID,0,VALID,18.99,VALID,232,VALID,0.221495,
1999-11-11, 00:53:00,VALID,0,VALID,99.278,VALID,0.0849042,VALID,18.989,VALID,214,VALID,0.666941,
1999-11-11, 00:54:00,VALID,0,VALID,99.3238,VALID,0.0509425,VALID,18.9955,VALID,208,VALID,0.517887,
1999-11-11, 00:55:00,VALID,0,VALID,99.3466,VALID,0.101885,VALID,18.9917,VALID,213,VALID,0.447917,
1999-11-11, 00:56:00,VALID,0,VALID,99.4001,VALID,0.0849042,VALID,18.9982,VALID,194,VALID,0.48137,
1999-11-11, 00:57:00,VALID,0,VALID,99.4585,VALID,0.101885,VALID,19.0017,VALID,195,VALID,0.510156,
1999-11-11, 00:58:00,VALID,0,VALID,99.4751,VALID,0.0849042,VALID,19.0077,VALID,185,VALID,0.407589,
1999-11-11, 00:59:00,VALID,0,VALID,99.4675,VALID,0.0849042,VALID,18.9853,VALID,176,VALID,0.475391,
1999-11-11, 01:00:00,VALID,0,VALID,99.5158,VALID,0.101885,VALID,18.9985,VALID,176,VALID,0.0923109,
1999-11-11, 01:01:00,VALID,0,VALID,99.5972,VALID,0.0679233,VALID,19.0014,VALID,176,VALID,0,
1999-11-11, 01:02:00,VALID,0,VALID,99.6251,VALID,0.0679233,VALID,19.0216,VALID,176,VALID,0,
1999-11-11, 01:03:00,VALID,0,VALID,99.6544,VALID,0.0679233,VALID,19.0246,VALID,176,VALID,0,
1999-11-11, 01:04:00,VALID,0,VALID,99.6175,VALID,0.0509425,VALID,19.0149,VALID,176,VALID,0,
1999-11-11, 01:05:00,VALID,0,VALID,99.634,VALID,0.0679233,VALID,19.0114,VALID,176,VALID,0,
1999-11-11, 01:06:00,VALID,0,VALID,99.6442,VALID,0.0169808,VALID,19.0093,VALID,176,VALID,0,
1999-11-11, 01:07:00,VALID,0,VALID,99.6455,VALID,-0.0849042,VALID,18.9937,VALID,176,VALID,0,
1999-11-11, 01:08:00,VALID,0,VALID,99.5781,VALID,-0.0849042,VALID,18.9807,VALID,191,VALID,0,
1999-11-11, 01:09:00,VALID,0,VALID,99.5336,VALID,-0.0339617,VALID,18.9389,VALID,218,VALID,0,
1999-11-11, 01:10:00,VALID,0,VALID,99.5743,VALID,-0.0339617,VALID,18.9225,VALID,214,VALID,0,
1999-11-11, 01:11:00,VALID,0,VALID,99.615,VALID,-0.0339617,VALID,18.9158,VALID,208,VALID,0,
1999-11-11, 01:12:00,VALID,0,VALID,99.6035,VALID,-0.0679233,VALID,18.9034,VALID,200,VALID,0,
1999-11-11, 01:13:00,VALID,0,VALID,99.6671,VALID,-0.101885,VALID,18.9064,VALID,201,VALID,0,
1999-11-11, 01:14:00,VALID,0,VALID,99.6874,VALID,-0.0509425,VALID,18.9128,VALID,210,VALID,0,
1999-11-11, 01:15:00,VALID,0,VALID,99.7523,VALID,-0.0339617,VALID,18.929,VALID,206,VALID,0.311719,
1999-11-11, 01:16:00,VALID,0,VALID,99.854,VALID,-0.0849042,VALID,18.9909,VALID,213,VALID,0.794671,
1999-11-11, 01:17:00,VALID,0,VALID,99.8438,VALID,-0.0509425,VALID,19.0193,VALID,195,VALID,0.49707,
1999-11-11, 01:18:00,VALID,0,VALID,99.8604,VALID,-0.0679233,VALID,19.0325,VALID,213,VALID,0.69634,
1999-11-11, 01:19:00,VALID,0,VALID,99.8934,VALID,-0.0169808,VALID,19.0618,VALID,201,VALID,0.858594,
1999-11-11, 01:20:00,VALID,0,VALID,99.8667,VALID,0,VALID,19.0715,VALID,206,VALID,0.728674,
1999-11-11, 01:21:00,VALID,0,VALID,99.8756,VALID,-0.0169808,VALID,19.0712,VALID,213,VALID,0.621199,
1999-11-11, 01:22:00,VALID,0,VALID,99.8642,VALID,-0.0509425,VALID,19.0814,VALID,195,VALID,0.576122,
1999-11-11, 01:23:00,VALID,0,VALID,99.8667,VALID,-0.0339617,VALID,19.0879,VALID,208,VALID,0.521176,
1999-11-11, 01:24:00,VALID,0,VALID,99.8629,VALID,0,VALID,19.0742,VALID,215,VALID,0.784628,
1999-11-11, 01:25:00,VALID,0,VALID,99.8858,VALID,0,VALID,19.08,VALID,220,VALID,0.747122,
1999-11-11, 01:26:00,VALID,0,VALID,99.8769,VALID,-0.0169808,VALID,19.0909,VALID,215,VALID,0.674342,
1999-11-11, 01:27:00,VALID,0,VALID,99.8604,VALID,-0.0169808,VALID,19.0708,VALID,213,VALID,0.525641,
1999-11-11, 01:28:00,VALID,0,VALID,99.8756,VALID,-0.0509425,VALID,19.0809,VALID,196,VALID,0.385216,
1999-11-11, 01:29:00,VALID,0,VALID,99.8604,VALID,-0.0169808,VALID,19.0777,VALID,199,VALID,0.495508,
1999-11-11, 01:30:00,VALID,0,VALID,99.8553,VALID,0,VALID,19.0454,VALID,200,VALID,0.504241,
1999-11-11, 01:31:00,VALID,0,VALID,99.9062,VALID,-0.0509425,VALID,19.0715,VALID,201,VALID,0.643945,
1999-11-11, 01:32:00,VALID,0,VALID,99.9418,VALID,-0.0169808,VALID,19.0805,VALID,201,VALID,0.50514,
1999-11-11, 01:33:00,VALID,0,VALID,99.9494,VALID,0,VALID,19.0939,VALID,201,VALID,0.551098,
1999-11-11, 01:34:00,VALID,0,VALID,99.9265,VALID,-0.0339617,VALID,19.0902,VALID,194,VALID,0.805088,
1999-11-11, 01:35:00,VALID,0,VALID,99.9023,VALID,-0.0169808,VALID,19.0906,VALID,182,VALID,0.651867,
1999-11-11, 01:36:00,VALID,0,VALID,99.8833,VALID,0,VALID,19.0479,VALID,168,VALID,0.541211,
1999-11-11, 01:37:00,VALID,0,VALID,99.8655,VALID,-0.0339617,VALID,19.0297,VALID,185,VALID,0.528166,
1999-11-11, 01:38:00,VALID,0,VALID,99.84,VALID,0,VALID,18.9874,VALID,179,VALID,0.561928,
1999-11-11, 01:39:00,VALID,0,VALID,99.868,VALID,-0.0509425,VALID,18.9745,VALID,183,VALID,1.09079,
1999-11-11, 01:40:00,VALID,0,VALID,99.9125,VALID,-0.0339617,VALID,18.9775,VALID,182,VALID,1.15625,
1999-11-11, 01:41:00,VALID,0,VALID,99.9621,VALID,-0.0509425,VALID,18.9907,VALID,181,VALID,1.22496,
1999-11-11, 01:42:00,VALID,0,VALID,99.9647,VALID,-0.0169808,VALID,18.9969,VALID,152,VALID,0.98163,
1999-11-11, 01:43:00,VALID,0,VALID,99.9519,VALID,-0.0679233,VALID,18.971,VALID,163,VALID,0.767475,
1999-11-11, 01:44:00,VALID,0,VALID,99.9822,VALID,-0.0339617,VALID,18.9646,VALID,151,VALID,1.11308,
1999-11-11, 01:45:00,VALID,0,VALID,99.9903,VALID,-0.0849042,VALID,18.9777,VALID,165,VALID,0.819712,
1999-11-11, 01:46:00,VALID,0,VALID,100,VALID,-0.0339617,VALID,18.975,VALID,171,VALID,0.708615,
1999-11-11, 01:47:00,VALID,0,VALID,100,VALID,-0.0679233,VALID,18.9976,VALID,184,VALID,0.609766,
1999-11-11, 01:48:00,VALID,0,VALID,100,VALID,-0.101885,VALID,18.9907,VALID,196,VALID,0.688902,
1999-11-11, 01:49:00,VALID,0,VALID,100,VALID,-0.0339617,VALID,18.987,VALID,192,VALID,0.845898,
1999-11-11, 01:50:00,VALID,0,VALID,100,VALID,-0.0169808,VALID,19.0068,VALID,228,VALID,0.622533,
1999-11-11, 01:51:00,VALID,0,VALID,100,VALID,-0.0169808,VALID,19.0161,VALID,215,VALID,0.977734,
1999-11-11, 01:52:00,VALID,0,VALID,100,VALID,-0.0169808,VALID,19.0262,VALID,213,VALID,0.941723,
1999-11-11, 01:53:00,VALID,0,VALID,100,VALID,0,VALID,19.0327,VALID,224,VALID,0.724451,
1999-11-11, 01:54:00,VALID,0,VALID,100,VALID,0,VALID,19.0392,VALID,227,VALID,0.746995,
1999-11-11, 01:55:00,VALID,0,VALID,100,VALID,0.0169808,VALID,19.0359,VALID,219,VALID,0.704564,
1999-11-11, 01:56:00,VALID,0,VALID,100,VALID,0,VALID,19.0188,VALID,216,VALID,0.67652,
1999-11-11, 01:57:00,VALID,0,VALID,100,VALID,0,VALID,19.026,VALID,209,VALID,0.830798,
1999-11-11, 01:58:00,VALID,0,VALID,100,VALID,0,VALID,19.0195,VALID,197,VALID,0.966488,
1999-11-11, 01:59:00,VALID,0,VALID,100,VALID,0,VALID,19.0327,VALID,202,VALID,0.66887,
1999-11-11, 02:00:00,VALID,0,VALID,100,VALID,0,VALID,19.0392,VALID,207,VALID,0.536058,
1999-11-11, 02:01:00,VALID,0,VALID,100,VALID,0,VALID,19.0489,VALID,214,VALID,0.350195,
1999-11-11, 02:02:00,VALID,0,VALID,100,VALID,0,VALID,19.0556,VALID,215,VALID,0.376116,
1999-11-11, 02:03:00,VALID,0,VALID,100,VALID,-0.0169808,VALID,19.0521,VALID,218,VALID,0.671289,
1999-11-11, 02:04:00,VALID,0,VALID,100,VALID,-0.0169808,VALID,19.0491,VALID,221,VALID,0.833265,
1999-11-11, 02:05:00,VALID,0,VALID,100,VALID,-0.0169808,VALID,19.0424,VALID,219,VALID,0.781039,
1999-11-11, 02:06:00,VALID,0,VALID,100,VALID,0,VALID,19.0295,VALID,215,VALID,0.499199,
1999-11-11, 02:07:00,VALID,0,VALID,100,VALID,0,VALID,19.0228,VALID,210,VALID,0.39939,
1999-11-11, 02:08:00,VALID,0,VALID,100,VALID,-0.0509425,VALID,19.02,VALID,216,VALID,0.48457,
1999-11-11, 02:09:00,VALID,0,VALID,100,VALID,0,VALID,19.0064,VALID,208,VALID,0.510074,
1999-11-11, 02:10:00,VALID,0,VALID,100,VALID,0,VALID,19.0004,VALID,201,VALID,0.687309,
1999-11-11, 02:11:00,VALID,0,VALID,100,VALID,-0.0169808,VALID,18.9837,VALID,190,VALID,0.414063,
1999-11-11, 02:12:00,VALID,0,VALID,100,VALID,0,VALID,18.9743,VALID,209,VALID,0.362331,
1999-11-11, 02:13:00,VALID,0,VALID,100,VALID,-0.0509425,VALID,18.9516,VALID,198,VALID,0.0590946,
1999-11-11, 02:14:00,VALID,0,VALID,100,VALID,-0.0169808,VALID,18.9484,VALID,208,VALID,0.14527,
1999-11-11, 02:15:00,VALID,0,VALID,100,VALID,0,VALID,18.9417,VALID,210,VALID,0.764391,
1999-11-11, 02:16:00,VALID,0,VALID,100,VALID,0,VALID,18.9322,VALID,204,VALID,0.701069,
1999-11-11, 02:17:00,VALID,0,VALID,100,VALID,-0.0169808,VALID,18.9223,VALID,197,VALID,0.821715,
1999-11-11, 02:18:00,VALID,0,VALID,100,VALID,0,VALID,18.9131,VALID,195,VALID,1.00274,
1999-11-11, 02:19:01,VALID,0,VALID,100,VALID,0,VALID,18.8902,VALID,207,VALID,0.726563,
1999-11-11, 02:20:00,VALID,0,VALID,100,VALID,0,VALID,18.8775,VALID,202,VALID,0.63762,
1999-11-11, 02:21:00,VALID,0,VALID,100,VALID,-0.0169808,VALID,18.8676,VALID,200,VALID,0.130859,
1999-11-11, 02:22:00,VALID,0,VALID,100,VALID,-0.0169808,VALID,18.8547,VALID,201,VALID,0,
1999-11-11, 02:23:00,VALID,0,VALID,100,VALID,-0.0339617,VALID,18.8484,VALID,192,VALID,0,
1999-11-11, 02:24:00,VALID,0,VALID,100,VALID,0,VALID,18.8223,VALID,181,VALID,0.397804,
1999-11-11, 02:25:00,VALID,0,VALID,100,VALID,-0.0169808,VALID,18.8034,VALID,159,VALID,0.657728,
1999-11-11, 02:26:00,VALID,0,VALID,100,VALID,0,VALID,18.745,VALID,152,VALID,0.770232,
1999-11-11, 02:27:00,VALID,0,VALID,100,VALID,0,VALID,18.7154,VALID,154,VALID,0.889186,
1999-11-11, 02:28:00,VALID,0,VALID,100,VALID,0,VALID,18.6965,VALID,159,VALID,0.915329,
1999-11-11, 02:29:00,VALID,0,VALID,100,VALID,-0.0169808,VALID,18.6898,VALID,174,VALID,0.641242,
1999-11-11, 02:30:00,VALID,0,VALID,100,VALID,0,VALID,18.7005,VALID,174,VALID,0.753495,
1999-11-11, 02:31:00,VALID,0,VALID,100,VALID,-0.0339617,VALID,18.6933,VALID,175,VALID,0.269832,
1999-11-11, 02:32:00,VALID,0,VALID,100,VALID,-0.0339617,VALID,18.6709,VALID,182,VALID,0,
1999-11-11, 02:33:00,VALID,0,VALID,100,VALID,-0.0169808,VALID,18.6677,VALID,189,VALID,0.622656,
1999-11-11, 02:34:00,VALID,0,VALID,100,VALID,-0.0169808,VALID,18.6513,VALID,187,VALID,0.883482,
1999-11-11, 02:35:00,VALID,0,VALID,100,VALID,0,VALID,18.6582,VALID,192,VALID,0.995508,
1999-11-11, 02:36:00,VALID,0,VALID,100,VALID,0.0169808,VALID,18.6411,VALID,201,VALID,1.08614,
1999-11-11, 02:37:00,VALID,0,VALID,100,VALID,-0.0169808,VALID,18.658,VALID,203,VALID,1.17145,
1999-11-11, 02:38:00,VALID,0,VALID,100,VALID,-0.0169808,VALID,18.6416,VALID,208,VALID,1.09756,
1999-11-11, 02:39:00,VALID,0,VALID,100,VALID,-0.0169808,VALID,18.6351,VALID,207,VALID,1.17168,
1999-11-11, 02:40:00,VALID,0,VALID,100,VALID,0,VALID,18.642,VALID,210,VALID,0.945313,
1999-11-11, 02:41:01,VALID,0,VALID,100,VALID,-0.0169808,VALID,18.6381,VALID,208,VALID,0.96361,
1999-11-11, 02:42:00,VALID,0,VALID,100,VALID,-0.0169808,VALID,18.6388,VALID,206,VALID,1.24238,
1999-11-11, 02:43:00,VALID,0,VALID,100,VALID,0.0169808,VALID,18.6222,VALID,198,VALID,0.661529,
1999-11-11, 02:44:00,VALID,0,VALID,100,VALID,-0.0169808,VALID,18.6095,VALID,190,VALID,0.516892,
1999-11-11, 02:45:00,VALID,0,VALID,100,VALID,-0.0169808,VALID,18.5963,VALID,187,VALID,0.651442,
1999-11-11, 02:46:00,VALID,0,VALID,100,VALID,-0.0169808,VALID,18.5737,VALID,183,VALID,0.615709,
1999-11-11, 02:47:00,VALID,0,VALID,100,VALID,-0.0169808,VALID,18.5638,VALID,167,VALID,0.658923,
1999-11-11, 02:48:00,VALID,0,VALID,100,VALID,0,VALID,18.5506,VALID,162,VALID,0.706826,
1999-11-11, 02:49:00,VALID,0,VALID,100,VALID,0.0169808,VALID,18.5314,VALID,169,VALID,0.80028,
1999-11-11, 02:50:00,VALID,0,VALID,100,VALID,0,VALID,18.522,VALID,163,VALID,0.898438,
1999-11-11, 02:51:01,VALID,0,VALID,100,VALID,-0.0509425,VALID,18.5063,VALID,155,VALID,0.652539,
1999-11-11, 02:52:01,VALID,0,VALID,100,VALID,-0.0509425,VALID,18.4834,VALID,158,VALID,0.686298,
1999-11-11, 02:53:00,VALID,0,VALID,100,VALID,-0.0849042,VALID,18.464,VALID,160,VALID,0.803125,
1999-11-11, 02:54:00,VALID,0,VALID,100,VALID,-0.0509425,VALID,18.461,VALID,163,VALID,0.633635,
1999-11-11, 02:55:00,VALID,0,VALID,100,VALID,-0.0339617,VALID,18.4543,VALID,172,VALID,0.558398,
1999-11-11, 02:56:00,VALID,0,VALID,100,VALID,-0.0679233,VALID,18.4412,VALID,189,VALID,0.70228,
1999-11-11, 02:57:00,VALID,0,VALID,100,VALID,-0.0169808,VALID,18.4479,VALID,200,VALID,0.644215,
1999-11-11, 02:58:00,VALID,0,VALID,100,VALID,-0.0339617,VALID,18.4384,VALID,197,VALID,0.719952,
1999-11-11, 02:59:00,VALID,0,VALID,100,VALID,-0.0339617,VALID,18.422,VALID,175,VALID,0.590872,
1999-11-11, 03:00:00,VALID,0,VALID,100,VALID,-0.0339617,VALID,18.4125,VALID,169,VALID,0.618032,
1999-11-11, 03:01:00,VALID,0,VALID,100,VALID,-0.0339617,VALID,18.3832,VALID,158,VALID,0.610197,
1999-11-11, 03:02:00,VALID,0,VALID,100,VALID,-0.0339617,VALID,18.3539,VALID,163,VALID,0.601151,
1999-11-11, 03:03:01,VALID,0,VALID,100,VALID,0,VALID,18.341,VALID,149,VALID,0.777845,
1999-11-11, 03:04:00,VALID,0,VALID,100,VALID,-0.0339617,VALID,18.3442,VALID,151,VALID,0.661859,
1999-11-11, 03:05:00,VALID,0,VALID,100,VALID,-0.0169808,VALID,18.328,VALID,146,VALID,0.225391,
1999-11-11, 03:06:00,VALID,0,VALID,100,VALID,-0.0169808,VALID,18.3481,VALID,140,VALID,0.479911,
1999-11-11, 03:07:00,VALID,0,VALID,100,VALID,-0.0169808,VALID,18.3541,VALID,140,VALID,0.248047,
1999-11-11, 03:08:00,VALID,0,VALID,100,VALID,-0.0509425,VALID,18.3317,VALID,142,VALID,0,
1999-11-11, 03:09:00,VALID,0,VALID,100,VALID,-0.0339617,VALID,18.3283,VALID,142,VALID,0,
1999-11-11, 03:10:00,VALID,0,VALID,99.9964,VALID,-0.0679233,VALID,18.332,VALID,142,VALID,0,
1999-11-11, 03:11:00,VALID,0,VALID,99.9621,VALID,-0.0339617,VALID,18.3091,VALID,148,VALID,0,
1999-11-11, 03:12:00,VALID,0,VALID,99.9723,VALID,-0.0169808,VALID,18.3027,VALID,163,VALID,0,
1999-11-11, 03:13:01,VALID,0,VALID,99.9443,VALID,-0.0849042,VALID,18.2833,VALID,191,VALID,0,
1999-11-11, 03:14:01,VALID,0,VALID,99.9868,VALID,-0.0849042,VALID,18.2867,VALID,200,VALID,0.108232,
1999-11-11, 03:15:00,VALID,0,VALID,100,VALID,-0.0849042,VALID,18.2964,VALID,204,VALID,0.079603,
1999-11-11, 03:16:00,VALID,0,VALID,100,VALID,-0.0509425,VALID,18.3126,VALID,201,VALID,0,
1999-11-11, 03:17:00,VALID,0,VALID,100,VALID,-0.0509425,VALID,18.3195,VALID,205,VALID,0,
1999-11-11, 03:18:00,VALID,0,VALID,100,VALID,-0.0509425,VALID,18.3387,VALID,206,VALID,0,
1999-11-11, 03:19:00,VALID,0,VALID,100,VALID,-0.0849042,VALID,18.3518,VALID,218,VALID,0,
1999-11-11, 03:20:00,VALID,0,VALID,100,VALID,-0.0339617,VALID,18.371,VALID,226,VALID,0,
1999-11-11, 03:21:00,VALID,0,VALID,100,VALID,-0.0849042,VALID,18.3811,VALID,214,VALID,0,
1999-11-11, 03:22:00,VALID,0,VALID,100,VALID,-0.101885,VALID,18.3777,VALID,212,VALID,0,
1999-11-11, 03:23:00,VALID,0,VALID,100,VALID,-0.0679233,VALID,18.3844,VALID,207,VALID,0,
1999-11-11, 03:24:01,VALID,0,VALID,100,VALID,-0.0169808,VALID,18.3904,VALID,214,VALID,0,
1999-11-11, 03:25:01,VALID,0,VALID,100,VALID,-0.0339617,VALID,18.4033,VALID,222,VALID,0,
1999-11-11, 03:26:00,VALID,0,VALID,100,VALID,-0.0849042,VALID,18.4038,VALID,207,VALID,0,
1999-11-11, 03:27:00,VALID,0,VALID,99.988,VALID,-0.101885,VALID,18.3324,VALID,182,VALID,0,
1999-11-11, 03:28:00,VALID,0,VALID,99.8922,VALID,-0.0849042,VALID,18.2417,VALID,172,VALID,0,
1999-11-11, 03:29:00,VALID,0,VALID,99.8426,VALID,-0.0679233,VALID,18.1678,VALID,166,VALID,0,
1999-11-11, 03:30:00,VALID,0,VALID,99.8477,VALID,-0.101885,VALID,18.1223,VALID,166,VALID,0,
1999-11-11, 03:31:00,VALID,0,VALID,99.8807,VALID,-0.0849042,VALID,18.1032,VALID,166,VALID,0,
1999-11-11, 03:32:00,VALID,0,VALID,99.9735,VALID,-0.0509425,VALID,18.1191,VALID,167,VALID,0,
1999-11-11, 03:33:00,VALID,0,VALID,99.9954,VALID,-0.0509425,VALID,18.135,VALID,173,VALID,0,
1999-11-11, 03:34:00,VALID,0,VALID,99.9967,VALID,-0.0679233,VALID,18.142,VALID,185,VALID,0,
1999-11-11, 03:35:00,VALID,0,VALID,99.9697,VALID,-0.0509425,VALID,18.1129,VALID,185,VALID,0,
1999-11-11, 03:36:01,VALID,0,VALID,99.9847,VALID,-0.0169808,VALID,18.109,VALID,193,VALID,0,
1999-11-11, 03:37:00,VALID,0,VALID,99.9969,VALID,0,VALID,18.0984,VALID,212,VALID,0,
1999-11-11, 03:38:00,VALID,0,VALID,100,VALID,0.0679233,VALID,18.121,VALID,206,VALID,0,
1999-11-11, 03:39:00,VALID,0,VALID,100,VALID,0,VALID,18.1406,VALID,209,VALID,0,
1999-11-11, 03:40:00,VALID,0,VALID,100,VALID,0.0679233,VALID,18.1406,VALID,209,VALID,0,
1999-11-11, 03:41:00,VALID,0,VALID,100,VALID,0.0169808,VALID,18.1572,VALID,213,VALID,0,
1999-11-11, 03:42:00,VALID,0,VALID,100,VALID,0.0339617,VALID,18.1665,VALID,218,VALID,0,
1999-11-11, 03:43:00,VALID,0,VALID,99.9944,VALID,0.0339617,VALID,18.1665,VALID,214,VALID,0,
1999-11-11, 03:44:00,VALID,0,VALID,99.9858,VALID,0.0339617,VALID,18.166,VALID,213,VALID,0,
1999-11-11, 03:45:00,VALID,0,VALID,100,VALID,0.0169808,VALID,18.1921,VALID,205,VALID,0.478207,
1999-11-11, 03:46:01,VALID,0,VALID,100,VALID,0.0849042,VALID,18.2115,VALID,201,VALID,0.968369,
1999-11-11, 03:47:01,VALID,0,VALID,100,VALID,0.0339617,VALID,18.2438,VALID,209,VALID,0.582559,
1999-11-11, 03:48:00,VALID,0,VALID,100,VALID,0.0679233,VALID,18.2738,VALID,226,VALID,0.604096,
1999-11-11, 03:49:00,VALID,0,VALID,100,VALID,0.0509425,VALID,18.293,VALID,221,VALID,0.14984,
1999-11-11, 03:50:00,VALID,0,VALID,100,VALID,0.0339617,VALID,18.2895,VALID,220,VALID,0,
1999-11-11, 03:51:00,VALID,0,VALID,99.9954,VALID,0.0339617,VALID,18.283,VALID,220,VALID,0,
1999-11-11, 03:52:00,VALID,0,VALID,99.972,VALID,0,VALID,18.2743,VALID,221,VALID,0,
1999-11-11, 03:53:00,VALID,0,VALID,99.9481,VALID,0,VALID,18.2412,VALID,230,VALID,0,
1999-11-11, 03:54:00,VALID,0,VALID,99.9252,VALID,0,VALID,18.2419,VALID,226,VALID,0,
1999-11-11, 03:55:00,VALID,0,VALID,99.9201,VALID,-0.0339617,VALID,18.2228,VALID,221,VALID,0,
1999-11-11, 03:56:00,VALID,0,VALID,99.8884,VALID,-0.0169808,VALID,18.1898,VALID,206,VALID,0,
1999-11-11, 03:57:01,VALID,0,VALID,99.8362,VALID,-0.0339617,VALID,18.1514,VALID,186,VALID,0,
1999-11-11, 03:58:01,VALID,0,VALID,99.868,VALID,0,VALID,18.1025,VALID,182,VALID,0,
1999-11-11, 03:59:00,VALID,0,VALID,99.9418,VALID,-0.0169808,VALID,18.1254,VALID,187,VALID,0.835547,
1999-11-11, 04:00:00,VALID,0,VALID,99.9695,VALID,0,VALID,18.1256,VALID,198,VALID,0.989443,
1999-11-11, 04:01:00,VALID,0,VALID,99.9685,VALID,0,VALID,18.1316,VALID,195,VALID,1.2084,
1999-11-11, 04:02:00,VALID,0,VALID,99.9647,VALID,0,VALID,18.1353,VALID,204,VALID,0.771034,
1999-11-11, 04:03:00,VALID,0,VALID,99.9405,VALID,0,VALID,18.1189,VALID,203,VALID,0.832237,
1999-11-11, 04:04:00,VALID,0,VALID,99.9329,VALID,0,VALID,18.1124,VALID,190,VALID,1.20735,
1999-11-11, 04:05:00,VALID,0,VALID,99.9112,VALID,0,VALID,18.1124,VALID,196,VALID,1.26933,
1999-11-11, 04:06:00,VALID,0,VALID,99.8795,VALID,0,VALID,18.1161,VALID,181,VALID,1.01192,
1999-11-11, 04:07:00,VALID,0,VALID,99.8922,VALID,0,VALID,18.1025,VALID,186,VALID,1.09195,
1999-11-11, 04:08:00,VALID,0,VALID,99.8527,VALID,0,VALID,18.0997,VALID,188,VALID,1.15765,
1999-11-11, 04:09:00,VALID,0,VALID,99.8578,VALID,-0.0169808,VALID,18.1002,VALID,198,VALID,1.33906,
1999-11-11, 04:10:00,VALID,0,VALID,99.8693,VALID,-0.0679233,VALID,18.0903,VALID,199,VALID,0.934821,
1999-11-11, 04:11:00,VALID,0,VALID,99.8718,VALID,-0.0169808,VALID,18.1,VALID,194,VALID,0.999805,
1999-11-11, 04:12:00,VALID,0,VALID,99.8438,VALID,-0.0169808,VALID,18.09,VALID,191,VALID,1.16345,
1999-11-11, 04:13:00,VALID,0,VALID,99.8642,VALID,0,VALID,18.0868,VALID,188,VALID,1.06313,